PAL454P RPMR-RPLL

Flight info

Callsign PAL454P
Flight time N/A
Altitude 40000
Route LATIA4P LATIA W6 LUMVI B473 LAIYA LAIYA7R
Aircraft A359/H-SDE2E3GHIJ3J4J5LM1ORWXY/LB1D1

Departure

Time 2026-04-23 14:43
Airport General Santos International Airport (RPMR)

Arrival

Time N/A
Airport Ninoy Aquino International Airport (RPLL)
Time Latitude Longitude Altitude Speed Heading
2026-04-23 14:35 6.05765 125.09874 520 ft 0 kts 173°
2026-04-23 14:37 6.05756 125.09875 520 ft 5 kts 173°
2026-04-23 14:37 6.05701 125.09882 520 ft 10 kts 173°
2026-04-23 14:37 6.05624 125.09891 520 ft 12 kts 173°
2026-04-23 14:38 6.05529 125.09902 520 ft 15 kts 173°
2026-04-23 14:38 6.05437 125.09907 520 ft 10 kts 198°
2026-04-23 14:38 6.05413 125.09849 521 ft 10 kts 263°
2026-04-23 14:38 6.05403 125.09769 521 ft 14 kts 263°
2026-04-23 14:39 6.05358 125.09682 520 ft 15 kts 202°
2026-04-23 14:39 6.05248 125.09687 520 ft 17 kts 174°
2026-04-23 14:39 6.05125 125.09702 520 ft 19 kts 173°
2026-04-23 14:39 6.04992 125.09719 521 ft 20 kts 173°
2026-04-23 14:40 6.04845 125.09737 522 ft 22 kts 173°
2026-04-23 14:40 6.04679 125.09757 520 ft 26 kts 173°
2026-04-23 14:40 6.04563 125.09771 521 ft 9 kts 173°
2026-04-23 14:40 6.04504 125.09799 521 ft 8 kts 115°
2026-04-23 14:41 6.04506 125.09869 520 ft 13 kts 83°
2026-04-23 14:41 6.04484 125.09947 520 ft 9 kts 154°
2026-04-23 14:41 6.04419 125.09950 520 ft 11 kts 186°
2026-04-23 14:41 6.04387 125.09900 520 ft 10 kts 264°
2026-04-23 14:42 6.04378 125.09822 521 ft 10 kts 268°
2026-04-23 14:42 6.04414 125.09790 522 ft 6 kts 351°
2026-04-23 14:42 6.04540 125.09774 521 ft 47 kts 353°
2026-04-23 14:42 6.05123 125.09704 520 ft 119 kts 353°
2026-04-23 14:43 6.06136 125.09577 575 ft 171 kts 353°
2026-04-23 14:43 6.07280 125.09421 1411 ft 165 kts 354°
2026-04-23 14:43 6.08456 125.09268 2027 ft 181 kts 354°
2026-04-23 14:43 6.09810 125.09089 2284 ft 210 kts 354°
2026-04-23 14:44 6.11332 125.08973 2702 ft 227 kts
2026-04-23 14:44 6.12900 125.09403 3165 ft 246 kts 31°
2026-04-23 14:44 6.14097 125.10621 3834 ft 254 kts 58°
2026-04-23 14:44 6.14843 125.12247 4658 ft 259 kts 67°
2026-04-23 14:45 6.15587 125.13919 5468 ft 263 kts 63°
2026-04-23 14:45 6.16467 125.15539 6353 ft 265 kts 58°
2026-04-23 14:45 6.17508 125.17090 7147 ft 271 kts 53°
2026-04-23 14:45 6.18729 125.18558 7976 ft 275 kts 49°
2026-04-23 14:46 6.19923 125.20081 8827 ft 279 kts 56°
2026-04-23 14:46 6.21038 125.21700 9692 ft 284 kts 54°
2026-04-23 14:46 6.22372 125.23194 10466 ft 290 kts 41°
2026-04-23 14:46 6.24079 125.24232 11254 ft 297 kts 24°
2026-04-23 14:47 6.26135 125.24821 11680 ft 318 kts 14°
2026-04-23 14:47 6.28382 125.25279 12009 ft 339 kts 13°
2026-04-23 14:47 6.30753 125.25769 12403 ft 354 kts 14°
2026-04-23 14:47 6.33191 125.26296 13019 ft 361 kts 14°
2026-04-23 14:48 6.35657 125.26845 13653 ft 366 kts 14°
2026-04-23 14:48 6.38134 125.27403 14275 ft 369 kts 14°
2026-04-23 14:48 6.40684 125.27834 14864 ft 375 kts
2026-04-23 14:48 6.43314 125.27777 15423 ft 382 kts 354°
2026-04-23 14:49 6.45906 125.27108 16008 ft 388 kts 340°
2026-04-23 14:49 6.48283 125.25858 16555 ft 395 kts 327°
2026-04-23 14:49 6.50495 125.24184 17158 ft 399 kts 323°
2026-04-23 14:49 6.52673 125.22423 17722 ft 403 kts 323°
2026-04-23 14:50 6.54856 125.20657 18326 ft 405 kts 323°
2026-04-23 14:50 6.57070 125.18873 18810 ft 409 kts 323°
2026-04-23 14:50 6.59302 125.17081 19247 ft 413 kts 323°
2026-04-23 14:50 6.61558 125.15275 19769 ft 416 kts 323°
2026-04-23 14:51 6.63838 125.13451 20272 ft 419 kts 323°
2026-04-23 14:51 6.66123 125.11631 20781 ft 422 kts 323°
2026-04-23 14:51 6.68438 125.09779 21288 ft 426 kts 323°
2026-04-23 14:51 6.70735 125.07938 21750 ft 430 kts 323°
2026-04-23 14:52 6.73081 125.06059 22248 ft 433 kts 323°
2026-04-23 14:52 6.75462 125.04152 22761 ft 437 kts 323°
2026-04-23 14:52 6.77850 125.02241 23237 ft 440 kts 323°
2026-04-23 14:52 6.80256 125.00316 23669 ft 443 kts 323°
2026-04-23 14:53 6.82679 124.98376 24049 ft 446 kts 323°
2026-04-23 14:53 6.85088 124.96450 24476 ft 449 kts 323°
2026-04-23 14:53 6.87555 124.94510 24919 ft 451 kts 325°
2026-04-23 14:53 6.90211 124.92839 25376 ft 451 kts 334°
2026-04-23 14:54 6.93118 124.91660 25855 ft 451 kts 345°
2026-04-23 14:54 6.96161 124.90842 26351 ft 454 kts 348°
2026-04-23 14:54 6.99258 124.90160 26824 ft 456 kts 350°
2026-04-23 14:54 7.02387 124.89541 27306 ft 460 kts 350°
2026-04-23 14:55 7.05536 124.88937 27788 ft 463 kts 350°
2026-04-23 14:55 7.08716 124.88323 28273 ft 466 kts 350°
2026-04-23 14:55 7.11918 124.87690 28753 ft 469 kts 349°
2026-04-23 14:55 7.15128 124.87043 29212 ft 473 kts 349°
2026-04-23 14:56 7.18328 124.86389 29652 ft 476 kts 349°
2026-04-23 14:56 7.21592 124.85716 30067 ft 480 kts 349°
2026-04-23 14:56 7.24867 124.85039 30436 ft 483 kts 349°
2026-04-23 14:56 7.28173 124.84357 30809 ft 485 kts 349°
2026-04-23 14:57 7.31498 124.83673 31174 ft 488 kts 349°
2026-04-23 14:57 7.34828 124.82984 31545 ft 491 kts 349°
2026-04-23 14:57 7.38178 124.82291 31900 ft 493 kts 349°
2026-04-23 14:57 7.41558 124.81591 32242 ft 496 kts 349°
2026-04-23 14:58 7.44945 124.80891 32593 ft 498 kts 349°
2026-04-23 14:58 7.48353 124.80187 32919 ft 500 kts 349°
2026-04-23 14:58 7.51735 124.79489 33298 ft 501 kts 348°
2026-04-23 14:58 7.55159 124.78782 33641 ft 502 kts 348°
2026-04-23 14:59 7.58590 124.78073 33933 ft 504 kts 348°
2026-04-23 14:59 7.62026 124.77363 34324 ft 503 kts 348°
2026-04-23 14:59 7.65446 124.76657 34732 ft 501 kts 348°
2026-04-23 14:59 7.68852 124.75954 35109 ft 500 kts 348°
2026-04-23 15:00 7.72266 124.75249 35453 ft 499 kts 348°
2026-04-23 15:00 7.75664 124.74546 35818 ft 498 kts 348°
2026-04-23 15:00 7.79058 124.73845 36186 ft 496 kts 348°
2026-04-23 15:00 7.82445 124.73145 36494 ft 497 kts 348°
2026-04-23 15:01 7.85838 124.72443 36745 ft 498 kts 348°
2026-04-23 15:01 7.89233 124.71741 37078 ft 497 kts 348°
2026-04-23 15:01 7.92578 124.71050 37403 ft 496 kts 348°
2026-04-23 15:01 7.95957 124.70351 37735 ft 495 kts 348°
2026-04-23 15:02 7.98243 124.69880 37949 ft 495 kts 348°
2026-04-23 15:02 8.02721 124.68956 38362 ft 494 kts 348°
2026-04-23 15:02 8.06094 124.68259 38644 ft 494 kts 348°
2026-04-23 15:02 8.09462 124.67562 38886 ft 493 kts 348°
2026-04-23 15:03 8.12787 124.66874 39125 ft 492 kts 348°
2026-04-23 15:03 8.16129 124.66182 39383 ft 490 kts 348°
2026-04-23 15:03 8.19460 124.65493 39632 ft 489 kts 348°
2026-04-23 15:03 8.22800 124.64802 39855 ft 489 kts 348°
2026-04-23 15:04 8.29465 124.63423 39926 ft 488 kts 348°
2026-04-23 15:04 8.36126 124.62045 39924 ft 488 kts 348°
2026-04-23 15:05 8.42622 124.60095 39912 ft 487 kts 335°
2026-04-23 15:05 8.48611 124.56922 39913 ft 486 kts 330°
2026-04-23 15:06 8.54446 124.53553 39912 ft 486 kts 329°
2026-04-23 15:06 8.60307 124.50129 39901 ft 486 kts 329°
2026-04-23 15:07 8.66174 124.46724 39906 ft 486 kts 330°
2026-04-23 15:07 8.72048 124.43330 39903 ft 486 kts 329°
2026-04-23 15:08 8.77928 124.39936 39903 ft 486 kts 329°
2026-04-23 15:09 8.86691 124.34874 39899 ft 485 kts 329°
2026-04-23 15:09 8.92559 124.31482 39908 ft 485 kts 329°
2026-04-23 15:10 8.97427 124.28667 39903 ft 485 kts 329°
2026-04-23 15:10 9.04277 124.24708 39900 ft 484 kts 329°
2026-04-23 15:11 9.10099 124.21337 39909 ft 484 kts 329°
2026-04-23 15:11 9.15954 124.17933 39914 ft 484 kts 329°
2026-04-23 15:12 9.21796 124.14538 39911 ft 483 kts 329°
2026-04-23 15:12 9.27628 124.11152 39909 ft 482 kts 329°
2026-04-23 15:13 9.33459 124.07765 39915 ft 483 kts 329°
2026-04-23 15:13 9.38310 124.04948 39912 ft 483 kts 329°
2026-04-23 15:14 9.45109 124.01026 39907 ft 483 kts 329°
2026-04-23 15:14 9.50954 123.97658 39913 ft 482 kts 329°
2026-04-23 15:15 9.55781 123.94855 39914 ft 481 kts 329°
2026-04-23 15:15 9.61608 123.91460 39902 ft 483 kts 329°
2026-04-23 15:16 9.67442 123.88065 39907 ft 483 kts 329°
2026-04-23 15:16 9.73273 123.84675 39914 ft 483 kts 329°
2026-04-23 15:17 9.79080 123.81298 39915 ft 483 kts 329°
2026-04-23 15:17 9.84913 123.77905 39916 ft 483 kts 329°
2026-04-23 15:18 9.90747 123.74511 39923 ft 483 kts 329°
2026-04-23 15:18 9.96597 123.71108 39923 ft 483 kts 329°
2026-04-23 15:19 10.02428 123.67700 39916 ft 483 kts 329°
2026-04-23 15:19 10.08260 123.64293 39924 ft 483 kts 329°
2026-04-23 15:20 10.14086 123.60890 39924 ft 483 kts 329°
2026-04-23 15:20 10.19880 123.57506 39927 ft 483 kts 329°
2026-04-23 15:21 10.25698 123.54107 39926 ft 483 kts 329°
2026-04-23 15:21 10.31542 123.50700 39922 ft 483 kts 329°
2026-04-23 15:22 10.37342 123.47317 39919 ft 483 kts 329°
2026-04-23 15:22 10.43172 123.43909 39922 ft 483 kts 329°
2026-04-23 15:23 10.48995 123.40506 39928 ft 483 kts 329°
2026-04-23 15:23 10.54816 123.37106 39927 ft 482 kts 329°
2026-04-23 15:24 10.60631 123.33706 39928 ft 482 kts 329°
2026-04-23 15:24 10.66467 123.30293 39928 ft 482 kts 329°
2026-04-23 15:25 10.72285 123.26893 39920 ft 482 kts 329°
2026-04-23 15:25 10.78077 123.23518 39913 ft 482 kts 329°
2026-04-23 15:26 10.83886 123.20109 39922 ft 482 kts 328°
2026-04-23 15:26 10.89700 123.16691 39918 ft 482 kts 328°
2026-04-23 15:27 10.95516 123.13276 39910 ft 482 kts 328°
2026-04-23 15:27 11.01318 123.09877 39920 ft 481 kts 328°
2026-04-23 15:28 11.07096 123.06482 39911 ft 481 kts 328°
2026-04-23 15:28 11.12896 123.03072 39919 ft 481 kts 328°
2026-04-23 15:29 11.18695 122.99662 39919 ft 481 kts 328°
2026-04-23 15:29 11.24500 122.96249 39920 ft 481 kts 328°
2026-04-23 15:30 11.30299 122.92838 39923 ft 481 kts 328°
2026-04-23 15:30 11.36105 122.89426 39925 ft 481 kts 328°
2026-04-23 15:31 11.41876 122.86030 39928 ft 481 kts 328°
2026-04-23 15:31 11.47676 122.82608 39932 ft 481 kts 328°
2026-04-23 15:32 11.53475 122.79187 39923 ft 481 kts 328°
2026-04-23 15:32 11.59280 122.75763 39917 ft 481 kts 328°
2026-04-23 15:33 11.64973 122.72176 39932 ft 480 kts 324°
2026-04-23 15:33 11.70471 122.68376 39926 ft 480 kts 324°
2026-04-23 15:34 11.76011 122.64558 39938 ft 480 kts 324°
2026-04-23 15:34 11.81577 122.60781 39936 ft 479 kts 324°
2026-04-23 15:35 11.87143 122.57030 39937 ft 479 kts 325°
2026-04-23 15:35 11.92709 122.53281 39928 ft 479 kts 324°
2026-04-23 15:36 11.98253 122.49542 39925 ft 479 kts 324°
2026-04-23 15:36 12.03816 122.45787 39922 ft 479 kts 324°
2026-04-23 15:37 12.09375 122.42033 39917 ft 479 kts 324°
2026-04-23 15:37 12.14926 122.38282 39925 ft 479 kts 324°
2026-04-23 15:38 12.20490 122.34521 39911 ft 479 kts 324°
2026-04-23 15:38 12.26011 122.30787 39915 ft 478 kts 324°
2026-04-23 15:39 12.31560 122.27031 39919 ft 478 kts 324°
2026-04-23 15:39 12.37114 122.23271 39927 ft 478 kts 324°
2026-04-23 15:40 12.42630 122.19460 39926 ft 478 kts 324°
2026-04-23 15:40 12.48142 122.15617 39914 ft 478 kts 324°
2026-04-23 15:41 12.53612 122.11812 39918 ft 478 kts 324°
2026-04-23 15:41 12.59112 122.07985 39917 ft 478 kts 324°
2026-04-23 15:42 12.64620 122.04155 39919 ft 479 kts 324°
2026-04-23 15:42 12.70137 122.00317 39917 ft 479 kts 324°
2026-04-23 15:43 12.75649 121.96479 39921 ft 479 kts 324°
2026-04-23 15:43 12.81173 121.92631 39923 ft 480 kts 324°
2026-04-23 15:44 12.86689 121.88787 39922 ft 480 kts 324°
2026-04-23 15:44 12.92211 121.84937 39935 ft 480 kts 324°
2026-04-23 15:45 12.97730 121.81087 39920 ft 480 kts 324°
2026-04-23 15:45 13.03246 121.77235 39922 ft 480 kts 324°
2026-04-23 15:46 13.08771 121.73377 39921 ft 480 kts 324°
2026-04-23 15:46 13.14259 121.69541 39923 ft 480 kts 324°